QIANFAN-64

Satellite information

Favourite Embed

Satellite Type and Status

PAYLOADIN ORBIT

Key statistics

Satellite QIANFAN-64 at a glance.

Uptime

325

Days in orbit

Revolutions

≈ 13.5

Per day

Orbit

LEO

Low Earth Orbit

Inclination

89.0

Latest

Satellite identification and parameters

Extended collection of information and parameters for QIANFAN-64.

Object identification

Identified? True

Debris? False

Object name: QIANFAN-64

International designator: 2025-016K

Object number (NORAD): 62794

Object ID (CCSDS): 62794

Country: PEOPLES REPUBLIC OF CHINA (PRC)

Current information (Y/N): Y

RCS size: LARGE

Orbital parameters

Period: 106.589 minutes

Inclination: 88.9766 deg

SMA: 7446.796 km

Apoapsis: 1078.439 km

Periapsis: 1058.883 km

RAAN: 102.9416 deg

Eccentricy: 0.00131306

Argument of periapsis: 344.887 deg

Mean anomaly: 15.1887 deg

Mean motion: 13.50978885 rev/day

Mean motion (dot): 0.00000167 rev/day2

B* drag term: 0.00024017579 1/REarth

Two-line elements (TLE)

Creation date: Dec. 14, 2025, 3:07 a.m.

Reference frame: TEME

Reference center: EARTH

Epoch: Dec. 13, 2025, 2:57 p.m. UTC

TLE line 0: 0 QIANFAN-64

TLE line 1: 1 62794U 25016K 25347.62339085 .00000167 00000-0 24018-3 0 9991

TLE line 2: 2 62794 88.9766 102.9416 0013131 344.8870 15.1887 13.50978885 47386

Live tracking on map

Real-time ground track for satellite QIANFAN-64.

In-orbit conjunctions

There are no conjunctions computed for QIANFAN-64, at the moment. Check back to stay up to date, as we update our databases every day.

Go to all conjunctions

Associated space launch

18 Low Earth Orbit communication satellites with Ku, Q and V band payloads for the G60 constellation operated by Shanghai Spacecom Satellite Technology (SSST) with funding backed by the Shanghai local government. Initial constellation will consist of 1296 satellites by 2027 with long term plans to expand it to 12000 satellites.

QIANFAN-64 was lifted into orbit during the mission ‘Long March 6A | G60 Polar Group 06’, on board a Long March 6A space rocket.

The launch took place on Jan. 23, 2025, 5:15 a.m. from Launch Complex 9A.

For more information about the launch, click the button.

Launch to space Long March 6A | G60 Polar Group 06
Long March 6A | G60 Polar Group 06

Agency: N/A

Status: Launch Successful

Launch date: Jan. 23, 2025, 5:15 a.m. UTC

Rocket: Long March 6A

Launch pad: Launch Complex 9A

Location: Taiyuan Satellite Launch Center, People's Republic of China

...

Latest news about this satellite

News about space launch
China launches fourth batch of Thousand Sails megaconstellation satellites

HELSINKI — China launched the fourth batch of 18 satellites for the Thousand Sails megaconstellation early Thursday using a Long March 6A rocket. The Long March 6A lifted off at […] The post China launches fourth batch of Thousand Sails megaconstellation...


Newsletter sign-up

Weekly statistics, charts and insights to help you stay on top of the space industry.